Location: 22
(39.7117°N, 89.5929°W)
Time: 06:22:38
(UTC-05:00)

ISS - Pass Details

Date: 05 October 2021
Orbit: 417 x 423 km, 51.6° (Epoch: 16 October)

Event Time Altitude Azimuth Distance (km) Brightness Sun altitude
Rises 19:32:10 0° 307° (NW) 2,363 1.1 -12.0°
Reaches altitude 10° 19:34:16 10° 306° (NW) 1,497 0.0 -12.4°
Maximum altitude 19:37:38 84° 218° (SW) 424 -3.8 -13.1°
Enters shadow 19:39:52 19° 132° (SE) 1,047 -2.2 -13.5°
